FO-29
1 24278U 96046B 14009.69308231 -.00000001 00000-0 36249-4 0 2818
2 24278 098.5270 045.3401 0350073 349.0033 147.0691 13.53013402859230
SO-33
1 25509U 98061B 14009.32772080 .00000739 00000-0 13317-3 0 6666
2 25509 031.4347 340.3161 0350565 162.9178 318.5287 14.29279504794402
RS-22
1 27939U 03042A 14009.57353312 .00001040 00000-0 20310-3 0 1134
2 27939 097.7989 191.7227 0012304 251.0461 108.9411 14.64797758549504
VO-52
1 28650U 05017B 14009.15855097 .00003643 00000-0 43502-3 0 6280
2 28650 097.5619 022.1721 0024424 325.0583 127.0347 14.84596217469636
HO-68
1 36122U 09072B 14009.71247195 -.00000044 00000-0 00000 0 0 2218
2 36122 100.2770 066.2677 0007190 239.8708 120.1694 13.16310815195581
AO-73
1 39445U 13066AF 14008.91110101 .00002288 00000-0 31838-3 0 322
2 39445 097.7937 084.9527 0064378 040.6289 319.9672 14.77345696 5511
UO-11
1 14781U 84021B 14009.77739554 .00001691 00000-0 22371-3 0 3851
2 14781 097.8756 072.8449 0008019 345.1721 014.9256 14.81231030604516
AO-16
1 20439U 90005D 14008.82021251 .00000299 00000-0 12692-3 0 9269
2 20439 098.4937 309.2859 0009720 269.6637 116.6346 14.32263230251677
LO-19
1 20442U 90005G 14008.61410578 .00000312 00000-0 13102-3 0 8648
2 20442 098.4639 310.2255 0010732 258.8822 101.1156 14.32469540251831
AO-27
1 22825U 93061C 14008.82776025 .00000269 00000-0 12225-3 0 5682
2 22825 098.6444 315.9264 0009103 051.3849 335.1465 14.29639148 58017
IO-26
1 22826U 93061D 14009.83060508 .00000306 00000-0 13566-3 0 3260
2 22826 098.6389 317.1681 0009499 041.8133 318.3773 14.29931956 58287
GO-32
1 25397U 98043D 14009.85910826 .00000185 00000-0 99955-4 0 2496
2 25397 098.4466 333.9487 0002219 077.7194 335.0715 14.23392945805347
NO-44
1 26931U 01043C 14009.84684035 .00000341 00000-0 16392-3 0 5089
2 26931 067.0524 086.7367 0005931 265.6272 094.4151 14.30019907640965
SO-50
1 27607U 02058C 14009.37673541 .00002290 00000-0 37071-3 0 2680
2 27607 064.5581 356.2837 0032682 073.5238 089.9752 14.73324182594087
CO-55
1 27844U 03031E 14008.97175587 .00000521 00000-0 25867-3 0 8284
2 27844 098.6999 020.0456 0009842 021.7059 008.3164 14.21358125545964
CO-57
1 27848U 03031J 14009.52992480 .00000585 00000-0 28957-3 0 7696
2 27848 098.7090 020.2195 0009819 026.4239 126.6463 14.21066211545967
AO-51
1 28375U 04025K 14009.79339916 .00000459 00000-0 14883-3 0 7439
2 28375 098.2317 322.2799 0084568 111.1076 279.6150 14.41245063501094
CP3
1 31129U 07012N 14009.86402681 .00001658 00000-0 37679-3 0 6458
2 31129 097.9170 356.0846 0100412 143.4909 279.0652 14.54127403357020
CO-65
1 32785U 08021C 14009.75982182 .00004076 00000-0 48858-3 0 8387
2 32785 097.7244 066.1439 0013702 355.6712 143.6349 14.84544220308512
PRISM
1 33493U 09002B 14009.84560331 .00005674 00000-0 62979-3 0 5351
2 33493 098.2348 179.0867 0016864 239.5954 120.3602 14.87550683268623
SOHLA-1
1 33496U 09002E 14009.87660059 .00001009 00000-0 17452-3 0 2457
2 33496 098.1523 130.6376 0006844 036.5702 075.2228 14.70533553266248
TISAT-1
1 36799U 10035E 14009.81305359 .00003577 00000-0 43123-3 0 7997
2 36799 098.0240 100.7478 0015452 114.7380 245.5435 14.84390897189219
STUDSAT
1 36801U 10035G 14008.85494249 .00012314 00000-0 12213-2 0 7489
2 36801 098.0378 105.1763 0011281 096.1245 047.9565 14.91880090189338
ALMASAT-1
1 38078U 12006B 14008.67939452 .00041432 00000-0 91612-3 0 8976
2 38078 069.4777 080.1794 0650708 241.9833 111.4092 14.36785113 98625
XATCOBEO
1 38082U 12006F 14009.77204733 .00118430 58557-5 15979-2 0 8373
2 38082 069.4644 021.4010 0432569 210.2985 203.8104 14.92786407100311
CUBEBUG-1
1 39153U 13018D 14009.80651269 .00002091 00000-0 30315-3 0 7473
2 39153 098.0568 090.4132 0019045 136.8024 223.4667 14.77011102 38174
ESTCUBE-1
1 39161U 13021C 14009.80033757 .00001645 00000-0 28595-3 0 7170
2 39161 098.1113 091.8384 0010183 171.5264 188.6146 14.69443034 36334
NOAA-10
1 16969U 86073A 14009.16743567 .00000265 00000-0 12473-3 0 6325
2 16969 098.5276 037.3187 0011988 007.1048 063.4367 14.27703296421339
NOAA-11
1 19531U 88089A 14009.20395928 .00000161 00000-0 10530-3 0 6564
2 19531 098.6953 092.2356 0011563 038.3664 321.8330 14.15049870305258
NOAA-12
1 21263U 91032A 14009.17413966 .00000199 00000-0 10237-3 0 1201
2 21263 098.6796 037.7354 0013252 344.8796 056.5312 14.25616458177902
MET-3/5
1 21655U 91056A 14008.81760571 -.00000068 00000-0 -20965-3 0 8752
2 21655 082.5578 109.0290 0012483 339.4297 020.6321 13.17054041 77006
MET-2/21
1 22782U 93055A 14009.85622073 .00000120 00000-0 95466-4 0 9469
2 22782 082.5517 298.9297 0021960 352.9162 067.7660 13.83723169 28222
OKEAN-4
1 23317U 94066A 14009.85241898 .00002331 00000-0 27006-3 0 4251
2 23317 082.5367 216.3038 0019556 262.4870 272.2603 14.84964445 39606
NOAA-14
1 23455U 94089A 14009.20826551 .00000157 00000-0 10556-3 0 5980
2 23455 098.7896 095.4064 0010446 129.9146 283.1466 14.13941741981488
NOAA-15
1 25338U 98030A 14009.73965242 .00000268 00000-0 11393-3 0 305
2 25338 098.7415 004.0087 0009768 246.7659 113.2982 14.25323929814273
RESURS
1 25394U 98043A 14009.88767113 .00000117 00000-0 68491-4 0 5618
2 25394 098.3912 341.1140 0001718 048.9471 004.0415 14.24360115805780
FENGYUN1
1 25730U 99025A 14009.13895987 .00003175 00000-0 17786-2 0 534
2 25730 098.8995 331.4073 0026232 193.1888 232.0452 14.11208972755089
OKEAN-0
1 25860U 99039A 14009.10447698 .00001279 00000-0 19821-3 0 1438
2 25860 098.0210 334.1623 0001394 129.7720 284.1702 14.74897854778700
NOAA-16
1 26536U 00055A 14009.82086269 .00000296 00000-0 15894-3 0 5170
2 26536 099.0148 069.3293 0009795 273.2621 086.7902 14.12970913685750
NOAA-17
1 27453U 02032A 14009.82523249 .00000254 00000-0 10932-3 0 4238
2 27453 098.3114 017.9157 0010533 281.0986 078.9497 14.24671772600141
NOAA-18
1 28654U 05018A 14009.57153097 .00000207 00000-0 11320-3 0 9102
2 28654 099.1271 346.0566 0014209 353.0155 007.1300 14.11923921445214
NOAA-19
1 33591U 09005A 14009.16330642 .00000355 00000-0 21969-3 0 819
2 33591 098.9283 314.8330 0013696 204.7145 270.3580 14.11619542253551
HUBBLE
1 20580U 90037B 14008.45095572 .00003451 00000-0 22865-3 0 4123
2 20580 028.4717 006.4867 0003289 024.1519 108.2689 15.04478908100631
ISS
1 25544U 98067A 14009.93003620 .00013881 00000-0 24818-3 0 4304
2 25544 051.6494 163.9902 0005817 011.7555 074.7508 15.50285831866779
CO-58
1 28895U 05043F 14009.05381394 .00001613 00000-0 33361-3 0 6662
2 28895 097.8469 219.0895 0018315 149.6332 210.5935 14.61480158437004
FALCON
1 30776U 07006E 14009.47991029 .00011504 00000-0 63673-3 0 7763
2 30776 035.4316 014.1070 0002349 256.8907 236.9791 15.13131490376657
MAST
1 31126U 07012K 14008.81856750 .00001117 00000-0 25497-3 0 9435
2 31126 097.8982 358.2114 0093942 131.0803 347.9077 14.54890442357211
CAPE1
1 31130U 07012P 14009.19881864 .00001759 00000-0 40091-3 0 9491
2 31130 097.9181 355.0526 0100880 146.7234 214.0361 14.53919010356706
COMPASS
1 32787U 08021E 14009.12271946 .00003697 00000-0 42212-3 0 8262
2 32787 097.7262 067.1550 0013916 351.6676 008.4307 14.86606471308545
AAUSAT2
1 32788U 08021F 14009.80155352 .00006366 00000-0 71220-3 0 8111
2 32788 097.7270 068.6269 0013336 348.3291 011.7615 14.87178980308695
DO-64
1 32789U 08021G 14009.82233456 .00010740 00000-0 10969-2 0 8478
2 32789 097.7441 073.7850 0012393 337.3200 086.0317 14.90722907308882
CO-66
1 32791U 08021J 14009.82484532 .00005207 00000-0 60750-3 0 8065
2 32791 097.7260 066.9007 0014393 351.8294 008.2685 14.85531241308537
